Eugene, Missouri, United States (65032)
Lat: 38.35N, Lon: 92.4W
Wx Zone: MOZ048
Local Info
Past Weather Observations for Today

NOTE: This archive is for the closest National Weather Service station to Eugene. Information may differ from the station used for current weather conditions.

Click here for Long-term Archive

Time Weather Temperature Dewpoint Humidity Pressure Winds Precip Visibility
17:55
Clear
34°F / 1°C 21°F / -6°C 60% 30.42 in
(1030 mb)
E 4.6 mph
(E 7 kph)
- 10SM
17:35
Clear
32°F / 0°C 21°F / -6°C 64% 30.42 in
(1030 mb)
NE 4.6 mph
(NE 7 kph)
- 10SM
17:15
Clear
34°F / 1°C 21°F / -6°C 60% 30.42 in
(1030 mb)
ENE 3.5 mph
(ENE 6 kph)
- 10SM
16:55
Clear
36°F / 2°C 21°F / -6°C 56% 30.45 in
(1031 mb)
Calm - 10SM
16:35
Clear
36°F / 2°C 19°F / -7°C 52% 30.45 in
(1031 mb)
Calm - 10SM
16:15
Clear
37°F / 3°C 21°F / -6°C 52% 30.45 in
(1031 mb)
Calm - 10SM
15:55
Clear
37°F / 3°C 19°F / -7°C 48% 30.45 in
(1031 mb)
Calm - 10SM
15:35
Mostly Cloudy
37°F / 3°C 21°F / -6°C 52% 30.45 in
(1031 mb)
W 4.6 mph
(W 7 kph)
- 10SM
15:15
Overcast
37°F / 3°C 21°F / -6°C 52% 30.45 in
(1031 mb)
S 3.5 mph
(S 6 kph)
- 10SM
14:55
Overcast
37°F / 3°C 21°F / -6°C 52% 30.45 in
(1031 mb)
W 4.6 mph
(W 7 kph)
- 10SM
14:35
Overcast
37°F / 3°C 21°F / -6°C 52% 30.45 in
(1031 mb)
SSW 6.9 mph
(SSW 11 kph)
- 10SM
14:15
Overcast
37°F / 3°C 21°F / -6°C 52% 30.45 in
(1031 mb)
SSW 5.8 mph
(SSW 9 kph)
- 10SM
13:55
Overcast
36°F / 2°C 23°F / -5°C 60% 30.45 in
(1031 mb)
SW 4.6 mph
(SW 7 kph)
- 10SM
13:35
Overcast
36°F / 2°C 23°F / -5°C 60% 30.45 in
(1031 mb)
NW 3.5 mph
(NW 6 kph)
- 10SM
13:15
Overcast
36°F / 2°C 23°F / -5°C 60% 30.48 in
(1032 mb)
SSW 6.9 mph
(SSW 11 kph)
- 10SM
12:55
Overcast
34°F / 1°C 23°F / -5°C 65% 30.48 in
(1032 mb)
SSE 4.6 mph
(SSE 7 kph)
- 10SM
12:35
Overcast
34°F / 1°C 23°F / -5°C 65% 30.48 in
(1032 mb)
WNW 4.6 mph
(WNW 7 kph)
- 10SM
12:15
Overcast
32°F / 0°C 23°F / -5°C 69% 30.51 in
(1033 mb)
Calm - 10SM
11:55
Overcast
32°F / 0°C 25°F / -4°C 75% 30.51 in
(1033 mb)
WNW 3.5 mph
(WNW 6 kph)
- 10SM
11:35
Overcast
30°F / -1°C 23°F / -5°C 75% 30.51 in
(1033 mb)
SSW 4.6 mph
(SSW 7 kph)
- 10SM
11:15
Overcast
30°F / -1°C 23°F / -5°C 75% 30.54 in
(1034 mb)
W 4.6 mph
(W 7 kph)
- 10SM
10:55
Overcast
30°F / -1°C 21°F / -6°C 69% 30.54 in
(1034 mb)
N 4.6 mph
(N 7 kph)
- 10SM
10:35
Overcast
30°F / -1°C 21°F / -6°C 69% 30.54 in
(1034 mb)
NNW 5.8 mph
(NNW 9 kph)
- 10SM
10:15
Overcast
30°F / -1°C 21°F / -6°C 69% 30.54 in
(1034 mb)
N 5.8 mph
(N 9 kph)
- 10SM
09:55
Overcast
30°F / -1°C 21°F / -6°C 69% 30.54 in
(1034 mb)
NNW 4.6 mph
(NNW 7 kph)
- 10SM
09:35
Overcast
30°F / -1°C 21°F / -6°C 69% 30.54 in
(1034 mb)
NNW 4.6 mph
(NNW 7 kph)
- 10SM
09:15
Overcast
28°F / -2°C 21°F / -6°C 74% 30.54 in
(1034 mb)
N 3.5 mph
(N 6 kph)
- 10SM
08:55
Overcast
28°F / -2°C 21°F / -6°C 74% 30.51 in
(1033 mb)
NNW 6.9 mph
(NNW 11 kph)
- 10SM
08:35
Overcast
28°F / -2°C 23°F / -5°C 80% 30.51 in
(1033 mb)
N 5.8 mph
(N 9 kph)
- 9SM
08:15
Overcast
28°F / -2°C 23°F / -5°C 80% 30.51 in
(1033 mb)
N 5.8 mph
(N 9 kph)
- 8SM
07:55
Overcast
30°F / -1°C 23°F / -5°C 75% 30.51 in
(1033 mb)
N 4.6 mph
(N 7 kph)
- 8SM
07:35
Overcast
30°F / -1°C 23°F / -5°C 75% 30.48 in
(1032 mb)
NNW 5.8 mph
(NNW 9 kph)
- 7SM
07:15
Overcast
30°F / -1°C 23°F / -5°C 75% 30.48 in
(1032 mb)
NNW 8.1 mph
(NNW 13 kph)
- 8SM
06:55
Overcast
30°F / -1°C 23°F / -5°C 75% 30.48 in
(1032 mb)
NW 5.8 mph
(NW 9 kph)
- 9SM
06:35
Overcast
30°F / -1°C 23°F / -5°C 75% 30.45 in
(1031 mb)
WNW 5.8 mph
(WNW 9 kph)
- 10SM
06:15
Overcast
30°F / -1°C 23°F / -5°C 75% 30.45 in
(1031 mb)
NW 5.8 mph
(NW 9 kph)
- 9SM
05:55
Overcast
30°F / -1°C 25°F / -4°C 80% 30.45 in
(1031 mb)
NW 6.9 mph
(NW 11 kph)
- 8SM
05:35
Overcast
30°F / -1°C 25°F / -4°C 80% 30.45 in
(1031 mb)
NNW 6.9 mph
(NNW 11 kph)
- 8SM
05:15
Overcast
32°F / 0°C 25°F / -4°C 75% 30.45 in
(1031 mb)
NW 6.9 mph
(NW 11 kph)
- 8SM
04:55
Overcast
32°F / 0°C 25°F / -4°C 75% 30.42 in
(1030 mb)
NW 4.6 mph
(NW 7 kph)
- 9SM
04:35
Overcast
32°F / 0°C 25°F / -4°C 75% 30.42 in
(1030 mb)
NW 6.9 mph
(NW 11 kph)
- 9SM
04:15
Overcast
32°F / 0°C 25°F / -4°C 75% 30.42 in
(1030 mb)
NW 6.9 mph
(NW 11 kph)
- 8SM
03:55
Overcast
32°F / 0°C 27°F / -3°C 80% 30.39 in
(1029 mb)
NNW 6.9 mph
(NNW 11 kph)
- 8SM
03:35
Overcast
32°F / 0°C 27°F / -3°C 80% 30.39 in
(1029 mb)
NW 4.6 mph
(NW 7 kph)
- 7SM
03:15
Overcast
32°F / 0°C 27°F / -3°C 80% 30.42 in
(1030 mb)
NW 6.9 mph
(NW 11 kph)
- 6SM
02:55
Overcast
32°F / 0°C 27°F / -3°C 80% 30.39 in
(1029 mb)
NW 12.7 mph
(NW 20 kph)
- 6SM
02:35
Overcast
32°F / 0°C 27°F / -3°C 80% 30.39 in
(1029 mb)
NW 5.8 mph
(NW 9 kph)
- 7SM
02:15
Overcast
32°F / 0°C 27°F / -3°C 80% 30.36 in
(1028 mb)
NW 6.9 mph
(NW 11 kph)
- 6SM
01:55
Overcast
32°F / 0°C 27°F / -3°C 80% 30.36 in
(1028 mb)
NW 5.8 mph
(NW 9 kph)
- 7SM
01:35
Overcast
32°F / 0°C 27°F / -3°C 80% 30.36 in
(1028 mb)
NW 8.1 mph
(NW 13 kph)
- 7SM
01:15
Overcast
30°F / -1°C 27°F / -3°C 86% 30.36 in
(1028 mb)
NW 8.1 mph
(NW 13 kph)
- 7SM
00:55
Overcast
32°F / 0°C 27°F / -3°C 80% 30.33 in
(1027 mb)
NW 8.1 mph
(NW 13 kph)
- 7SM
00:35
Overcast
32°F / 0°C 27°F / -3°C 80% 30.33 in
(1027 mb)
NW 8.1 mph
(NW 13 kph)
- 7SM
00:15
Overcast
32°F / 0°C 27°F / -3°C 80% 30.33 in
(1027 mb)
WNW 8.1 mph
(WNW 13 kph)
- 8SM
Time Weather Temperature Dewpoint Humidity Pressure Winds Precip Visibility


Weather for websites

WeatherForYou.com, LLC is not responsible for any damages or problems caused by this service. Current weather conditions are obtained from the closest station including government and personal stations which may have varying degrees of accuracy. Weather forecasts are derived from the NOAA NDFD. Like all things, this site belongs to Jesus Christ... He just trusts me to maintain it. If you have any questions or comments email webmaster@weatherforyou.com

Copyright © 2014, WeatherForYou.com LLC. All rights reserved.